Weather History for Palmer, AK

Change the Weather History Date:

Sunday, October 6, 2013

  Actual Average Record
Temperature  
Mean Temperature 40 °F -  
Max Temperature 44 °F 47 °F 58 °F (1969)
Min Temperature 37 °F 31 °F 14 °F (1958)
Degree Days  
Heating Degree Days 24    
Moisture  
Dew Point 39 °F    
Average Humidity 93    
Maximum Humidity 100    
Minimum Humidity 87    
Precipitation  
Precipitation 0.28 in - - ()
Sea Level Pressure  
Sea Level Pressure 29.71 in    
Wind  
Wind Speed 3 mph (NNW)    
Max Wind Speed 7 mph    
Max Gust Speed -    
Visibility 8 miles    
Events Rain    
Averages and records for this station are not official NWS values.
T = Trace of Precipitation, MM = Missing Value Source: NWS Daily Summary

Daily Weather History Graph

Daily Weather History Graph

Search for Another Location

Airport:

Trip Planner

Search our weather history database for the weather conditions in past years. The results will help you decide how hot, cold, wet, or windy it might be!

Date:

Astronomy

Oct. 06, 2013 Rise Set
Actual Time 8:17 AM AKDT 7:10 PM AKDT
Civil Twilight 7:33 AM AKDT 7:53 PM AKDT
Nautical Twilight 6:42 AM AKDT 8:44 PM AKDT
Astronomical Twilight 5:49 AM AKDT 9:36 PM AKDT
Moon 10:56 AM AKDT (10/6) 7:28 PM AKDT (10/6)
Length of Visible Light 12h 20m
Length of Day
10h 52m
Waxing Crescent, 4% of the Moon is Illuminated
Oct 6
Waxing Crescent
Oct 11
First Quarter
Oct 18
Full
Oct 26
Last Quarter
Nov 3
New

Hourly Weather History & Observations

Time (AKDT) Temp. Windchill Dew Point Humidity Pressure Visibility Wind Dir Wind Speed Gust Speed Precip Events Conditions
12:53 AM 39.0 °F 35.7 °F 37.0 °F 93% 29.71 in 10.0 mi North 4.6 mph - N/A   Scattered Clouds
1:53 AM 39.0 °F 36.8 °F 36.0 °F 89% 29.71 in 10.0 mi NE 3.5 mph - N/A   Mostly Cloudy
2:53 AM 39.0 °F 35.7 °F 37.0 °F 93% 29.72 in 10.0 mi NNW 4.6 mph - N/A   Overcast
3:53 AM 39.0 °F 35.7 °F 37.0 °F 93% 29.72 in 10.0 mi North 4.6 mph - N/A   Overcast
4:53 AM 39.0 °F - 36.0 °F 89% 29.72 in 10.0 mi Calm Calm - N/A   Overcast
5:53 AM 37.9 °F - 36.0 °F 93% 29.72 in 10.0 mi Calm Calm - N/A   Mostly Cloudy
6:53 AM 37.9 °F 34.4 °F 36.0 °F 93% 29.72 in 10.0 mi NNW 4.6 mph - N/A   Mostly Cloudy
7:53 AM 39.0 °F 34.8 °F 36.0 °F 89% 29.72 in 10.0 mi North 5.8 mph - N/A   Overcast
8:53 AM 39.0 °F 35.7 °F 36.0 °F 89% 29.72 in 10.0 mi NNW 4.6 mph - N/A   Overcast
9:53 AM 39.0 °F 34.0 °F 36.0 °F 89% 29.72 in 10.0 mi North 6.9 mph - N/A   Overcast
10:53 AM 39.9 °F 35.8 °F 37.0 °F 89% 29.72 in 10.0 mi NNW 5.8 mph - 0.00 in Rain Light Rain
11:25 AM 39.2 °F - 37.4 °F 93% 29.71 in 6.0 mi Calm Calm - 0.01 in Rain Light Rain
11:53 AM 39.9 °F 37.8 °F 37.9 °F 93% 29.73 in 6.0 mi North 3.5 mph - 0.04 in Rain Rain
12:43 PM 39.2 °F 37.0 °F 39.2 °F 100% 29.71 in 5.0 mi North 3.5 mph - 0.06 in Rain Rain
12:53 PM 41.0 °F 39.0 °F 39.9 °F 96% 29.73 in 4.0 mi North 3.5 mph - 0.08 in Rain Rain
1:53 PM 42.1 °F - 39.9 °F 92% 29.73 in 5.0 mi Calm Calm - 0.02 in Rain Light Rain
2:04 PM 42.8 °F - 41.0 °F 93% 29.71 in 5.0 mi Calm Calm - 0.01 in Rain Light Rain
2:48 PM 42.8 °F - 41.0 °F 93% 29.70 in 5.0 mi Calm Calm - 0.01 in Rain Light Rain
2:53 PM 43.0 °F 41.3 °F 41.0 °F 93% 29.71 in 5.0 mi ESE 3.5 mph - 0.01 in Rain Light Rain
3:53 PM 43.0 °F - 41.0 °F 93% 29.70 in 6.0 mi Calm Calm - 0.01 in Rain Light Rain
4:53 PM 44.1 °F - 41.0 °F 89% 29.70 in 6.0 mi Calm Calm - 0.01 in Rain Light Rain
5:53 PM 43.0 °F 40.3 °F 41.0 °F 93% 29.70 in 5.0 mi WSW 4.6 mph - 0.01 in Rain Light Rain
6:53 PM 42.1 °F 39.2 °F 39.9 °F 92% 29.70 in 5.0 mi West 4.6 mph - 0.03 in Rain Light Rain
7:00 PM 42.8 °F 41.1 °F 39.2 °F 87% 29.69 in 7.0 mi West 3.5 mph - 0.00 in Rain Light Rain
7:03 PM 42.8 °F 41.1 °F 39.2 °F 87% 29.69 in 7.0 mi West 3.5 mph - 0.00 in Rain Light Rain
7:53 PM 41.0 °F - 39.0 °F 93% 29.70 in 9.0 mi Calm Calm - 0.03 in Rain Light Rain
8:53 PM 41.0 °F - 39.0 °F 93% 29.71 in 10.0 mi Calm Calm - 0.02 in Rain Light Rain
9:14 PM 41.0 °F - 39.2 °F 93% 29.70 in 10.0 mi Calm Calm - 0.00 in Rain Light Rain
9:37 PM 39.2 °F - 39.2 °F 100% 29.70 in 10.0 mi Calm Calm - 0.00 in Rain Light Rain
9:53 PM 39.9 °F - 39.0 °F 97% 29.72 in 10.0 mi Calm Calm - 0.00 in   Overcast
10:53 PM 39.9 °F - 39.0 °F 97% 29.72 in 7.0 mi Calm Calm - 0.00 in Rain Light Rain
11:43 PM 39.2 °F - 39.2 °F 100% 29.71 in 2.0 mi Calm Calm - 0.01 in Rain Light Rain
11:53 PM 39.9 °F - 39.0 °F 97% 29.73 in 2.0 mi Calm Calm - 0.02 in Rain Light Rain